[[{"header":{"parameterUnit":"m.s-1","parameterCategory":1,"la1":30.2991,"la2":30.254,"lo1":-89.0895,"lo2":-89.0444,"dy":0.0017,"dx":0.0017,"nx":28,"ny":28,"refTime":"2024-09-02T09:00:00:Z","depth":0,"parameterNumber":2,"parameterNumberName":"U-component_of_WINDS"},"data":[0,0,0,0,0,0,0,0,0,0,0,0,0,0,0,0,0,0,0,0,0,0,0,0,0,0,0,0,0,0,0,0,0,0,0,0,0,0,0,0,0,0,0,0,0,0,0,0,0,0,0,0,0,0,0,0,0,0,-2.3518,-2.3519,0,-2.3549,-2.3549,-2.355,-2.353,-2.3529,-2.3528,-2.3527,-2.3559,-2.3561,-2.3563,0,0,0,0,0,0,0,0,0,0,0,0,0,-2.3443,-2.3445,-2.3518,-2.3519,-2.3519,-2.3549,-2.3549,-2.355,-2.353,-2.3529,-2.3528,-2.3527,-2.3559,-2.3561,-2.3563,0,0,0,0,0,0,0,0,0,0,0,0,0,-2.3475,-2.3445,-2.3518,-2.3513,-2.3512,-2.3549,-2.3549,-2.355,-2.353,-2.3529,-2.3527,-2.3526,-2.3558,-2.356,-2.3563,-2.3607,0,0,-2.3571,-2.3572,0,0,0,0,0,0,0,0,-2.3473,-2.3478,-2.3513,-2.3513,-2.3513,-2.3534,-2.3535,-2.3569,-2.3531,-2.3523,-2.3527,-2.3525,-2.3552,-2.3555,-2.3564,-2.3608,-2.361,-2.3571,-2.3573,-2.3574,-2.3575,0,0,0,0,0,0,0,-2.3471,-2.3476,-2.353,-2.3514,-2.3514,-2.3509,-2.3512,-2.3541,-2.3545,-2.3524,-2.3523,-2.3526,-2.3552,-2.3561,-2.3564,-2.361,-2.3571,-2.3573,-2.3575,-2.3576,-2.3693,-2.3695,0,0,0,0,0,0,-2.3469,-2.3475,-2.3529,-2.3531,-2.3489,-2.3512,-2.3515,-2.3529,-2.3545,-2.3546,-2.3528,-2.3525,-2.3558,-2.3561,-2.3566,-2.3618,-2.3574,-2.3576,-2.3578,-2.3692,-2.3693,-2.3695,0,0,0,0,0,0,-2.3468,-2.3474,-2.3528,-2.3503,-2.3509,-2.3514,-2.353,-2.353,-2.354,-2.3548,-2.3548,-2.3537,-2.3557,-2.3562,-2.3597,-2.3619,-2.3577,-2.358,-2.369,-2.3692,-2.3694,-2.3724,0,0,0,0,0,0,-2.3466,-2.3474,-2.349,-2.3503,-2.3511,-2.3559,-2.3531,-2.3532,-2.3544,-2.3542,-2.3556,-2.3557,-2.3556,-2.3593,-2.3599,-2.3622,-2.3582,-2.3688,-2.3691,-2.3694,-2.3721,-2.3727,-2.3732,0,0,0,0,0,-2.3463,-2.3497,-2.3491,-2.3498,-2.3531,-2.356,-2.3564,-2.3562,-2.3546,-2.3563,-2.3568,-2.3557,-2.3616,-2.3597,-2.3604,-2.3627,-2.3686,-2.369,-2.3693,-2.3718,-2.3726,-2.3732,0,0,0,0,0,0,-2.3487,-2.3499,-2.3492,-2.3531,-2.3545,-2.3556,-2.3577,-2.357,-2.3588,-2.3585,-2.3581,-2.3585,-2.3621,-2.3628,-2.3607,-2.3671,-2.3649,-2.3654,-2.3665,-2.3672,-2.3678,-2.3675,-2.3584,0,0,0,0,0,-2.3496,-2.3519,-2.3528,-2.3562,-2.3569,-2.3572,-2.3585,-2.3582,-2.3595,-2.3601,-2.3609,-2.3623,-2.3645,-2.3659,-2.3679,-2.3722,-2.3725,-2.3742,-2.3747,-2.3752,-2.3756,-2.378,-2.3787,-2.3707,-2.3707,-2.3707,0,0,-2.3517,-2.3526,-2.354,-2.3567,-2.3577,-2.36,-2.3577,-2.3602,-2.362,-2.3605,-2.3638,-2.3645,-2.366,-2.37,-2.3717,-2.3706,-2.3779,-2.3756,-2.376,-2.3762,-2.3784,-2.3792,-2.3799,-2.3709,-2.3709,-2.3708,0,0,-2.3566,-2.3575,-2.3604,-2.3615,-2.3631,-2.3633,-2.364,-2.3653,-2.3657,-2.369,-2.368,-2.3701,-2.3738,-2.375,-2.376,-2.3815,-2.3806,-2.3822,-2.3851,-2.3874,-2.388,-2.3886,-2.3906,-2.3913,-2.3827,-2.3827,-2.3827,0,-2.3589,-2.3623,-2.362,-2.3647,-2.3659,-2.3647,-2.3677,-2.3688,-2.3709,-2.3718,-2.3706,-2.3753,-2.3762,-2.3804,-2.3818,-2.3827,-2.3836,-2.382,-2.388,-2.3885,-2.3891,-2.3909,-2.3917,-2.3828,-2.3828,-2.3828,-2.3828,0,-2.3652,-2.3676,-2.3698,-2.3719,-2.3734,-2.3762,-2.3764,-2.3779,-2.3775,-2.3779,-2.3814,-2.3825,-2.3848,-2.3858,-2.3854,-2.39,-2.3892,-2.388,-2.3857,-2.39,-2.3918,-2.3925,-2.3831,-2.383,-2.383,-2.3829,0,0,-2.3715,-2.3735,-2.3743,-2.3753,-2.377,-2.3788,-2.3817,-2.3839,-2.3852,-2.3868,-2.3892,-2.3924,-2.3913,-2.3925,-2.3923,-2.3944,-2.3987,-2.3929,-2.3929,-2.3939,-2.4038,-2.4047,-2.4055,-2.3981,-2.3982,-2.3983,-2.4037,0,-2.3765,-2.3814,-2.3812,-2.3858,-2.388,-2.387,-2.3894,-2.3907,-2.3912,-2.3932,-2.3937,-2.396,-2.3944,-2.3951,-2.3971,-2.3977,-2.4006,-2.3973,-2.4003,-2.4004,-2.3999,-2.4065,-2.4074,-2.4124,-2.4044,-2.4045,-2.4046,0,-2.383,-2.3848,-2.3895,-2.3909,-2.3919,-2.394,-2.3961,-2.398,-2.3996,-2.3998,-2.4012,-2.4007,-2.4036,-2.4013,-2.4054,-2.4031,-2.4044,-2.4049,-2.4051,-2.4053,-2.4027,-2.4069,-2.4139,-2.4147,-2.4056,-2.4055,-2.4055,0,-2.3872,-2.3908,-2.3941,-2.3949,-2.3966,-2.3982,-2.399,-2.4004,-2.4018,-2.4036,-2.4045,-2.4067,-2.4079,-2.4096,-2.4097,-2.408,-2.4138,-2.4115,-2.4141,-2.4141,-2.4153,-2.4152,-2.4227,-2.4162,-2.4161,-2.4161,-2.4161,0,-2.3928,-2.3957,-2.396,-2.398,-2.4013,-2.4012,-2.4045,-2.4051,-2.4064,-2.4086,-2.4078,-2.4099,-2.41,-2.4121,-2.4123,-2.4156,-2.4162,-2.4164,-2.4164,-2.4165,-2.4165,-2.4173,-2.4169,-2.4163,-2.4163,-2.4162,-2.4162,0,-2.398,-2.3983,-2.4018,-2.4032,-2.4036,-2.406,-2.4071,-2.4091,-2.4095,-2.4123,-2.413,-2.4136,-2.4162,-2.4165,-2.4194,-2.4195,-2.4236,-2.4232,-2.423,-2.423,-2.4255,-2.4253,-2.4337,-2.4349,-2.4276,-2.4277,-2.4277,0,-2.4015,-2.4037,-2.4053,-2.4067,-2.4076,-2.4099,-2.4113,-2.4113,-2.4128,-2.4147,-2.4165,-2.4189,-2.4209,-2.425,-2.4257,-2.428,-2.4277,-2.4305,-2.428,-2.428,-2.4278,-2.4276,-2.4279,-2.431,-2.431,-2.4311,-2.4312,0,-2.4077,-2.4078,-2.4098,-2.4119,-2.4136,-2.4153,-2.4168,-2.418,-2.4182,-2.42,-2.4225,-2.424,-2.4271,-2.4295,-2.4318,-2.4327,-2.432,-2.4319,-2.4327,-2.4327,-2.4326,-2.4327,-2.4243,-2.4317,-2.4317,-2.4316,-2.4316,-2.4316,-2.4122,-2.4142,-2.4156,-2.4179,-2.4191,-2.4206,-2.4226,-2.4232,-2.4253,-2.4278,-2.4276,-2.4305,-2.432,-2.435,-2.4361,-2.4383,-2.4374,-2.4384,-2.4387,-2.4389,-2.4392,-2.4322,-2.4387,-2.4387,-2.4387,-2.4387,-2.4387,0,-2.4185,-2.4193,-2.4215,-2.4237,-2.4255,-2.4247,-2.4264,-2.428,-2.4305,-2.432,-2.4339,-2.4369,-2.4393,-2.4403,-2.4427,-2.4443,-2.444,-2.4449,-2.4448,-2.445,-2.4399,-2.439,-2.4451,-2.4451,-2.4451,-2.4451,-2.4451,-2.4451,-2.4219,-2.4252,-2.4254,-2.4293,-2.4302,-2.433,-2.434,-2.4354,-2.4366,-2.44,-2.4419,-2.4426,-2.4439,-2.4464,-2.4486,-2.4488,-2.4497,-2.4507,-2.4509,-2.446,-2.4454,-2.4448,-2.4439,-2.4509,-2.4509,-2.4558,-2.4558,-2.4559]},{"header":{"parameterUnit":"m.s-1","parameterCategory":1,"la1":30.2991,"la2":30.254,"lo1":-89.0895,"lo2":-89.0444,"dy":0.0017,"dx":0.0017,"nx":28,"ny":28,"refTime":"2024-09-02T09:00:00:Z","depth":0,"parameterNumber":3,"parameterNumberName":"V-component_of_WINDS"},"data":[0,0,0,0,0,0,0,0,0,0,0,0,0,0,0,0,0,0,0,0,0,0,0,0,0,0,0,0,0,0,0,0,0,0,0,0,0,0,0,0,0,0,0,0,0,0,0,0,0,0,0,0,0,0,0,0,0,0,1.6966,1.6966,0,1.6956,1.6956,1.6956,1.6961,1.6961,1.6961,1.6961,1.6948,1.6948,1.6947,0,0,0,0,0,0,0,0,0,0,0,0,0,1.6986,1.6985,1.6966,1.6966,1.6966,1.6956,1.6956,1.6956,1.6961,1.6961,1.6961,1.6962,1.6949,1.6948,1.6947,0,0,0,0,0,0,0,0,0,0,0,0,0,1.6977,1.6985,1.6966,1.6967,1.6967,1.6956,1.6956,1.6956,1.6961,1.6961,1.6961,1.6962,1.6949,1.6948,1.6947,1.6934,0,0,1.6944,1.6944,0,0,0,0,0,0,0,0,1.6977,1.6976,1.6967,1.6967,1.6967,1.696,1.6958,1.6949,1.6961,1.6963,1.6961,1.6962,1.6952,1.6951,1.6948,1.6933,1.6933,1.6944,1.6944,1.6943,1.6943,0,0,0,0,0,0,0,1.6978,1.6976,1.6962,1.6967,1.6967,1.6967,1.6966,1.6957,1.6955,1.6963,1.6963,1.6962,1.6952,1.6949,1.6948,1.6933,1.6944,1.6944,1.6943,1.6943,1.6908,1.6907,0,0,0,0,0,0,1.6979,1.6977,1.6962,1.6962,1.6973,1.6966,1.6965,1.6962,1.6955,1.6955,1.6962,1.6962,1.695,1.6949,1.6947,1.6932,1.6943,1.6943,1.6942,1.6908,1.6908,1.6907,0,0,0,0,0,0,1.6979,1.6977,1.6963,1.6969,1.6968,1.6966,1.6962,1.6961,1.6959,1.6955,1.6954,1.6959,1.695,1.6948,1.6938,1.6932,1.6942,1.6941,1.6909,1.6908,1.6907,1.6901,0,0,0,0,0,0,1.698,1.6978,1.6973,1.6969,1.6967,1.6954,1.6961,1.6961,1.6957,1.6958,1.6952,1.6951,1.6951,1.6939,1.6937,1.6931,1.6941,1.6909,1.6908,1.6908,1.6902,1.69,1.6899,0,0,0,0,0,1.698,1.6971,1.6973,1.6971,1.6962,1.6954,1.6952,1.6953,1.6957,1.6952,1.695,1.6952,1.6933,1.6938,1.6935,1.6929,1.691,1.6909,1.6908,1.6902,1.6901,1.6899,0,0,0,0,0,0,1.6972,1.697,1.6972,1.6961,1.6958,1.6954,1.6948,1.695,1.6945,1.6945,1.6945,1.6944,1.6933,1.693,1.6935,1.6916,1.6922,1.692,1.6918,1.6917,1.6915,1.6916,1.694,0,0,0,0,0,1.6969,1.6964,1.6962,1.6952,1.6951,1.695,1.6946,1.6947,1.6943,1.6941,1.6938,1.6933,1.6926,1.6921,1.6915,1.6902,1.69,1.6896,1.6895,1.6893,1.6892,1.6885,1.6883,1.6904,1.6904,1.6904,0,0,1.6963,1.6961,1.6957,1.6951,1.6948,1.6942,1.6948,1.6941,1.6936,1.6939,1.693,1.6927,1.6922,1.691,1.6905,1.6907,1.6886,1.6892,1.6891,1.689,1.6884,1.6882,1.688,1.6904,1.6904,1.6904,0,0,1.6948,1.6946,1.6938,1.6936,1.6932,1.6932,1.693,1.6927,1.6926,1.6916,1.6919,1.6913,1.6901,1.6897,1.6893,1.6878,1.688,1.6876,1.6869,1.6862,1.686,1.6859,1.6854,1.6852,1.6875,1.6875,1.6875,0,1.694,1.6932,1.6934,1.6927,1.6924,1.6928,1.692,1.6917,1.6911,1.6908,1.6912,1.6898,1.6894,1.6882,1.6878,1.6875,1.6873,1.6876,1.6861,1.6859,1.6858,1.6853,1.6851,1.6874,1.6874,1.6875,1.6875,0,1.6922,1.6916,1.691,1.6906,1.6902,1.6894,1.6895,1.6891,1.6892,1.6891,1.6882,1.6878,1.6871,1.6868,1.6869,1.6856,1.6858,1.6861,1.6866,1.6855,1.6851,1.6849,1.6874,1.6874,1.6874,1.6874,0,0,1.69,1.6899,1.6896,1.6895,1.6892,1.6887,1.6879,1.6874,1.687,1.6866,1.686,1.685,1.6854,1.685,1.685,1.6844,1.6833,1.6848,1.6848,1.6845,1.6819,1.6816,1.6814,1.6835,1.6834,1.6834,1.6819,0,1.6885,1.6873,1.6876,1.6864,1.6858,1.6863,1.6856,1.6854,1.6853,1.6848,1.6847,1.684,1.6845,1.6843,1.6838,1.6836,1.6828,1.6837,1.6828,1.6827,1.6829,1.6812,1.6808,1.6795,1.6818,1.6817,1.6817,0,1.6865,1.6862,1.685,1.6849,1.6847,1.6841,1.6836,1.6832,1.6829,1.6829,1.6825,1.6827,1.6819,1.6825,1.6815,1.6821,1.6817,1.6816,1.6816,1.6814,1.6821,1.6809,1.6791,1.6788,1.6814,1.6814,1.6814,0,1.6851,1.6843,1.6835,1.6834,1.6832,1.6828,1.6827,1.6824,1.6821,1.6817,1.6815,1.681,1.6807,1.6802,1.6802,1.6807,1.6791,1.6798,1.6791,1.6791,1.6786,1.6786,1.6766,1.6785,1.6785,1.6785,1.6785,0,1.6833,1.6825,1.6829,1.6824,1.6815,1.6818,1.681,1.6809,1.6807,1.6802,1.6805,1.68,1.6801,1.6795,1.6795,1.6786,1.6785,1.6784,1.6784,1.6784,1.6784,1.6781,1.6781,1.6785,1.6785,1.6785,1.6785,0,1.6815,1.6817,1.6808,1.6808,1.6808,1.6802,1.6801,1.6796,1.6797,1.679,1.6788,1.6788,1.6782,1.6783,1.6775,1.6775,1.6764,1.6765,1.6766,1.6766,1.6758,1.6759,1.6735,1.6732,1.6753,1.6753,1.6753,0,1.6803,1.6798,1.6797,1.6794,1.6793,1.6789,1.6786,1.6789,1.6785,1.6782,1.6778,1.6772,1.6768,1.6758,1.6757,1.6752,1.6753,1.6745,1.6752,1.6751,1.6752,1.6752,1.6752,1.6743,1.6743,1.6743,1.6742,0,1.6782,1.6784,1.678,1.6777,1.6774,1.6771,1.6769,1.6766,1.6769,1.6765,1.676,1.6757,1.675,1.6744,1.674,1.6738,1.674,1.6741,1.6739,1.6737,1.6738,1.6737,1.6761,1.6741,1.6741,1.6741,1.6741,1.6741,1.6766,1.6762,1.6761,1.6757,1.6756,1.6754,1.675,1.675,1.6746,1.6742,1.6744,1.6737,1.6735,1.6729,1.6727,1.6722,1.6725,1.6722,1.6721,1.672,1.6719,1.6739,1.6721,1.6721,1.6721,1.6721,1.6721,0,1.6745,1.6746,1.6742,1.6739,1.6736,1.6741,1.6739,1.6735,1.673,1.6728,1.6725,1.6719,1.6714,1.6713,1.6708,1.6704,1.6705,1.6703,1.6703,1.6702,1.6717,1.6719,1.6702,1.6702,1.6702,1.6702,1.6702,1.6702,1.6734,1.6727,1.6729,1.6721,1.6721,1.6716,1.6714,1.6712,1.6711,1.6705,1.6701,1.6701,1.67,1.6695,1.6691,1.6691,1.6688,1.6685,1.6686,1.6699,1.6701,1.6703,1.6705,1.6685,1.6685,1.6671,1.6671,1.6671]}]]